This is the latest recevied weather packets stored in our database for station/object WD4ITN. If no packets are shown the sender has not sent any weather packets the latest 10 day(s).
| Time | Temp. | Humidity | Pressure | Rain* | Wind** | Luminosity | Snow |
|---|---|---|---|---|---|---|---|
| 1787952796 | 25.56° C | 62% | 1018.7 hPa | 0.25 mm | - | - | - |
| 1787952497 | 25.56° C | 66% | 1018.6 hPa | 0.25 mm | - | - | - |
| 1787952193 | 25.56° C | 62% | 1018.6 hPa | 0.25 mm | - | - | - |
| 1787951910 | 25.56° C | 63% | 1018.6 hPa | 0.25 mm | - | - | - |
| 1787951613 | 25.56° C | 64% | 1018.6 hPa | 0.25 mm | - | - | - |
| 1787951301 | 25.56° C | 62% | 1018.6 hPa | 0.25 mm | - | - | - |
| 1787951001 | 25.56° C | 62% | 1018.6 hPa | 0.25 mm | - | - | - |
| 1787950704 | 25.56° C | 61% | 1018.6 hPa | 0.25 mm | - | - | - |
| 1787950410 | 26.11° C | 58% | 1018.5 hPa | 0.25 mm | - | - | - |
| 1787950098 | 25.56° C | 59% | 1018.4 hPa | 0.25 mm | - | - | - |
| 1787949794 | 25.56° C | 61% | 1018.4 hPa | 0.25 mm | - | - | - |
| 1787949512 | 25° C | 65% | 1018.5 hPa | 0.25 mm | - | - | - |
| 1787949191 | 25° C | 65% | 1018.6 hPa | 0.25 mm | - | - | - |
| 1787948912 | 25° C | 62% | 1018.6 hPa | 0.25 mm | - | - | - |
| 1787948605 | 25° C | 62% | 1018.5 hPa | 0.25 mm | - | - | - |
| 1787948302 | 25.56° C | 60% | 1018.6 hPa | 0.25 mm | - | - | - |
| 1787948002 | 26.11° C | 59% | 1018.4 hPa | 0.25 mm | - | - | - |
| 1787947700 | 25.56° C | 61% | 1018.4 hPa | 0.25 mm | - | - | - |
| 1787947391 | 25.56° C | 62% | 1018.6 hPa | 0.25 mm | - | - | - |
| 1787947110 | 25.56° C | 57% | 1018.6 hPa | 0.25 mm | - | - | - |
| 1787946793 | 26.11° C | 60% | 1018.7 hPa | 0.25 mm | - | - | - |
| 1787946510 | 26.11° C | 59% | 1018.7 hPa | 0.25 mm | - | - | - |
| 1787946214 | 25.56° C | 61% | 1018.8 hPa | 0.25 mm | - | - | - |
| 1787945902 | 25.56° C | 63% | 1018.7 hPa | 0.25 mm | - | - | - |
| 1787945603 | 25.56° C | 63% | 1018.7 hPa | 0.25 mm | - | - | - |
* Rain since midnight (hover to see other rain measurements)
** Current wind speed in m/s (hover to see current wind gust speed)